Location: Unspecified
(48.8656°N, 0.0000°E)
Time: 15:19:30
(UTC+00:00)

Transit 2A Rocket - Pass Details

Date: 24 June 2019
Orbit: 590 x 913 km, 66.7° (Epoch: 22 August)

Event Time Altitude Azimuth Distance (km) Brightness Sun altitude
Rises 09:03:49 0° 188° (S) 3,530 8.5 46.8°
Reaches altitude 10° 09:06:29 10° 181° (S) 2,594 8.0 47.2°
Maximum altitude 09:12:04 40° 114° (ESE) 1,308 8.8 48.1°
Drops below altitude 10° 09:17:31 10° 48° (NE) 2,527 8.0 48.9°
Sets 09:20:05 0° 41° (NE) 3,430 8.5 49.3°
